Regional Weather Roundup
Issued by NWS Goodland, KS

Home | Current Version | Previous Version | Graphics & Text | Print | Product List | Glossary On
Versions: 1 2 3 4 5 6 7 8 9 10 11 12 13 14 15 16 17 18 19 20 21 22 23 24 25 26 27 28 29 30 31 32 33 34 35 36 37 38 39 40 41 42 43 44 45 46 47 48 49 50
000
ASUS43 KGLD 211059
RWRGLD

GOODLAND FORECAST AREA HOURLY WEATHER ROUNDUP
NATIONAL WEATHER SERVICE GOODLAND KS
400 AM MST SUN DEC 21 2014

...OFFICIAL OBSERVATIONS...

CITY           SKY/WX    TMP DP  RH WIND       PRES   REMARKS
GOODLAND KS    CLOUDY    33  29  85 CALM      29.82F
HILL CITY KS   MOCLDY    30  28  92 SW5       29.88F
IMPERIAL NEB   MOCLDY    32  25  75 NW6       29.82F
MCCOOK NEB     CLOUDY    30  28  92 CALM      29.82F
AKRON CO       PTCLDY    25  18  74 SW9       29.79F
BURLINGTON CO  PTCLDY    29  25  85 W9        29.82F
LIMON CO       PTCLDY    24  19  81 N3        29.82F
$$

...UNOFFICIAL OBSERVATIONS...

CITY           SKY/WX    TMP DP  RH WIND       PRES   REMARKS
COLBY KS       PTCLDY    30  30 100 SW5       29.84F
GOVE KS          N/A     27  32 100 MISG        N/A
NORTON KS      CLEAR     34  28  80 S5        29.84F
TRIBUNE KS     MOCLDY    28  28 100 CALM      29.85F
KIT CARSON CO    N/A     27  24  87 MISG        N/A
YUMA CO          N/A     24  19  81 W8          N/A
$$



USA.gov is the U.S. government's official web portal to all federal, state and local government web resources and services.